| time (UTC) | temp C | wind direction | speed KPH | gust KPH | rain 1hr cm | rain 24hr cm | rain mn cm | humidity % | barometer mb |
| 20260902003030 | 17 | 311 | 9.7 | 27.4 | 0.00 | 0.00 | 0.00 | 64 | 1010.8 |
| 20260902000031 | 17 | 331 | 11.3 | 25.7 | 0.00 | 0.00 | 0.00 | 65 | 1010.8 |
| 20260901234542 | 17 | 1 | 12.9 | 25.7 | 0.00 | 0.00 | 0.00 | 65 | 1010.9 |
| 20260901233035 | 18 | 339 | 11.3 | 25.7 | 0.00 | 0.00 | 0.00 | 63 | 1010.7 |
| 20260901231536 | 19 | 10 | 16.1 | 30.6 | 0.00 | 0.00 | 0.00 | 61 | 1010.6 |
| 20260901230035 | 20 | 18 | 12.9 | 22.5 | 0.00 | 0.00 | 0.00 | 60 | 1010.3 |
| 20260901224533 | 20 | 355 | 16.1 | 29.0 | 0.00 | 0.00 | 0.00 | 58 | 1010.2 |
| 20260901223035 | 21 | 344 | 12.9 | 22.5 | 0.00 | 0.00 | 0.00 | 58 | 1010.2 |
| 20260901221531 | 21 | 345 | 9.7 | 17.7 | 0.00 | 0.00 | 0.00 | 59 | 1010.2 |
| 20260901220108 | 20 | 21 | 14.5 | 29.0 | 0.00 | 0.00 | 0.00 | 59 | 1010.2 |
| 20260901214532 | 20 | 28 | 17.7 | 27.4 | 0.00 | 0.00 | 0.00 | 59 | 1010.3 |
| 20260901213035 | 20 | 16 | 17.7 | 25.7 | 0.00 | 0.00 | 0.00 | 59 | 1010.5 |
| 20260901211605 | 20 | 8 | 14.5 | 24.1 | 0.00 | 0.00 | 0.00 | 59 | 1010.6 |
| 20260901210030 | 20 | 7 | 14.5 | 24.1 | 0.00 | 0.00 | 0.00 | 59 | 1010.7 |
| 20260901204534 | 20 | 12 | 14.5 | 25.7 | 0.00 | 0.00 | 0.00 | 58 | 1010.8 |
| 20260901203036 | 20 | 19 | 14.5 | 25.7 | 0.00 | 0.00 | 0.00 | 58 | 1011.0 |
| 20260901201535 | 20 | 360 | 12.9 | 22.5 | 0.00 | 0.00 | 0.00 | 59 | 1011.2 |
| 20260901200032 | 19 | 10 | 14.5 | 22.5 | 0.00 | 0.00 | 0.00 | 59 | 1011.4 |
| 20260901194534 | 20 | 8 | 14.5 | 24.1 | 0.00 | 0.00 | 0.00 | 59 | 1011.5 |
| 20260901191537 | 19 | 16 | 11.3 | 19.3 | 0.00 | 0.00 | 0.00 | 61 | 1011.9 |
| 20260901190035 | 18 | 359 | 11.3 | 19.3 | 0.00 | 0.00 | 0.00 | 62 | 1012.0 |
| 20260901184534 | 18 | 358 | 12.9 | 20.9 | 0.00 | 0.00 | 0.00 | 63 | 1012.0 |
| 20260901183140 | 18 | 14 | 11.3 | 20.9 | 0.00 | 0.00 | 0.00 | 64 | 1012.2 |
| 20260901181533 | 17 | 360 | 11.3 | 22.5 | 0.00 | 0.00 | 0.00 | 66 | 1012.3 |
| 20260901180030 | 18 | 353 | 11.3 | 17.7 | 0.00 | 0.00 | 0.00 | 67 | 1012.3 |
| 20260901174536 | 17 | 359 | 6.4 | 17.7 | 0.00 | 0.00 | 0.00 | 71 | 1012.4 |
| 20260901173035 | 15 | 349 | 4.8 | 11.3 | 0.00 | 0.00 | 0.00 | 72 | 1012.5 |
| 20260901171534 | 15 | 339 | 6.4 | 14.5 | 0.00 | 0.00 | 0.00 | 73 | 1012.4 |
| 20260901170031 | 15 | 7 | 6.4 | 11.3 | 0.00 | 0.00 | 0.00 | 73 | 1012.4 |
| 20260901164531 | 14 | 2 | 3.2 | 6.4 | 0.00 | 0.00 | 0.00 | 75 | 1012.4 |
| 20260901161533 | 13 | 354 | 1.6 | 8.0 | 0.00 | 0.00 | 0.00 | 79 | 1012.3 |
| 20260901160031 | 12 | 40 | 0.0 | 4.8 | 0.00 | 0.00 | 0.00 | 80 | 1012.2 |
| 20260901154608 | 12 | 30 | 3.2 | 9.7 | 0.00 | 0.00 | 0.00 | 81 | 1012.1 |
| 20260901150037 | 8 | 159 | 4.8 | 9.7 | 0.00 | 0.00 | 0.00 | 84 | 1012.0 |
| 20260901144535 | 8 | 180 | 4.8 | 6.4 | 0.00 | 0.00 | 0.00 | 84 | 1011.9 |
| 20260901141536 | 8 | 180 | 4.8 | 6.4 | 0.00 | 0.00 | 0.00 | 81 | 1011.8 |
| 20260901140038 | 8 | 180 | 4.8 | 8.0 | 0.00 | 0.00 | 0.00 | 81 | 1011.7 |
| 20260901134531 | 8 | 179 | 4.8 | 8.0 | 0.00 | 0.00 | 0.00 | 81 | 1011.5 |
| 20260901133034 | 8 | 154 | 6.4 | 11.3 | 0.00 | 0.00 | 0.00 | 81 | 1011.4 |
| 20260901131535 | 7 | 132 | 6.4 | 11.3 | 0.00 | 0.00 | 0.00 | 80 | 1011.4 |
| 20260901130030 | 7 | 157 | 6.4 | 9.7 | 0.00 | 0.00 | 0.00 | 79 | 1011.3 |
| 20260901121538 | 8 | 171 | 4.8 | 8.0 | 0.00 | 0.00 | 0.00 | 75 | 1011.3 |
| 20260901120035 | 9 | 144 | 4.8 | 9.7 | 0.00 | 0.00 | 0.00 | 73 | 1011.1 |
| 20260901114532 | 10 | 137 | 4.8 | 12.9 | 0.00 | 0.00 | 0.00 | 71 | 1011.2 |
| 20260901113111 | 10 | 152 | 8.0 | 12.9 | 0.00 | 0.00 | 0.00 | 72 | 1011.2 |
| 20260901111532 | 9 | 141 | 8.0 | 14.5 | 0.00 | 0.00 | 0.00 | 73 | 1011.1 |
| 20260901110031 | 9 | 139 | 8.0 | 11.3 | 0.00 | 0.00 | 0.00 | 73 | 1011.2 |
| 20260901104641 | 10 | 147 | 3.2 | 8.0 | 0.00 | 0.00 | 0.00 | 72 | 1011.3 |
| 20260901103037 | 10 | 142 | 4.8 | 9.7 | 0.00 | 0.00 | 0.00 | 69 | 1011.3 |
| 20260901101605 | 11 | 153 | 4.8 | 9.7 | 0.00 | 0.00 | 0.00 | 66 | 1011.3 |
| 20260901100030 | 11 | 156 | 8.0 | 14.5 | 0.00 | 0.00 | 0.00 | 65 | 1011.3 |
| 20260901093150 | 11 | 144 | 8.0 | 14.5 | 0.00 | 0.00 | 0.00 | 68 | 1011.3 |
| 20260901091533 | 10 | 142 | 8.0 | 12.9 | 0.00 | 0.00 | 0.00 | 69 | 1011.3 |
| 20260901090032 | 10 | 144 | 8.0 | 11.3 | 0.00 | 0.00 | 0.00 | 69 | 1011.3 |
| 20260901084607 | 10 | 146 | 6.4 | 9.7 | 0.00 | 0.00 | 0.00 | 68 | 1011.3 |
| 20260901083035 | 11 | 139 | 6.4 | 11.3 | 0.00 | 0.00 | 0.00 | 65 | 1011.5 |
| 20260901081537 | 12 | 148 | 6.4 | 9.7 | 0.00 | 0.00 | 0.00 | 60 | 1011.5 |
| 20260901080034 | 13 | 136 | 8.0 | 12.9 | 0.00 | 0.00 | 0.00 | 56 | 1011.4 |
| 20260901073106 | 13 | 154 | 9.7 | 17.7 | 0.00 | 0.00 | 0.00 | 55 | 1011.3 |
| 20260901070107 | 15 | 159 | 9.7 | 16.1 | 0.00 | 0.00 | 0.00 | 55 | 1011.3 |
| 20260901064532 | 15 | 159 | 9.7 | 20.9 | 0.00 | 0.00 | 0.00 | 55 | 1011.4 |
| 20260901063030 | 15 | 154 | 9.7 | 17.7 | 0.00 | 0.00 | 0.00 | 55 | 1011.6 |
| 20260901061536 | 15 | 158 | 9.7 | 19.3 | 0.00 | 0.00 | 0.00 | 56 | 1011.7 |
| 20260901060032 | 15 | 160 | 9.7 | 17.7 | 0.00 | 0.00 | 0.00 | 58 | 1011.7 |
| 20260901054536 | 15 | 168 | 8.0 | 17.7 | 0.00 | 0.00 | 0.00 | 58 | 1011.8 |
| 20260901051532 | 15 | 179 | 9.7 | 16.1 | 0.00 | 0.00 | 0.00 | 58 | 1011.7 |
| 20260901050037 | 15 | 179 | 9.7 | 19.3 | 0.00 | 0.00 | 0.00 | 58 | 1011.8 |
| 20260901044535 | 15 | 161 | 8.0 | 14.5 | 0.00 | 0.00 | 0.00 | 58 | 1011.8 |
| 20260901040031 | 15 | 137 | 9.7 | 17.7 | 0.00 | 0.00 | 0.00 | 61 | 1011.5 |
| 20260901034607 | 15 | 144 | 11.3 | 16.1 | 0.00 | 0.00 | 0.00 | 65 | 1011.4 |
| 20260901033035 | 14 | 163 | 9.7 | 14.5 | 0.00 | 0.00 | 0.00 | 68 | 1011.2 |
| 20260901031532 | 14 | 176 | 9.7 | 12.9 | 0.00 | 0.00 | 0.00 | 70 | 1011.2 |
| 20260901030034 | 15 | 171 | 8.0 | 12.9 | 0.00 | 0.00 | 0.00 | 70 | 1011.3 |
| 20260901024534 | 15 | 168 | 8.0 | 11.3 | 0.00 | 0.00 | 0.00 | 71 | 1011.1 |
| 20260901023106 | 15 | 166 | 8.0 | 11.3 | 0.00 | 0.00 | 0.00 | 72 | 1011.0 |
| 20260901020036 | 15 | 138 | 6.4 | 8.0 | 0.00 | 0.00 | 0.00 | 72 | 1011.0 |
| 20260901014535 | 16 | 162 | 4.8 | 6.4 | 0.00 | 0.00 | 0.00 | 66 | 1011.0 |
| 20260901013031 | 18 | 188 | 3.2 | 4.8 | 0.00 | 0.00 | 0.00 | 59 | 1010.9 |
| 20260901011530 | 20 | 254 | 3.2 | 6.4 | 0.00 | 0.00 | 0.00 | 57 | 1011.0 |
| 20260901004534 | 22 | 250 | 3.2 | 9.7 | 0.00 | 0.00 | 0.00 | 50 | 1011.1 |